Time,TemperatureF,DewpointF,PressureIn,WindDirection,WindDirectionDegrees,WindSpeedMPH,WindSpeedGustMPH,Humidity,HourlyPrecipIn,Conditions,Clouds,dailyrainin,SoftwareType,DateUTC
2013-03-19 00:00:00,68.2,64.5,29.77,SW,224,0.0,2.0,88,0.00,,---,0.00,VWS V13.01,2013-03-19 04:00:00,
2013-03-19 00:01:00,68.2,64.5,29.77,SW,224,0.0,2.0,88,0.00,,---,0.00,VWS V13.01,2013-03-19 04:01:00,
2013-03-19 00:06:00,68.0,64.3,29.77,SW,224,0.0,0.0,88,0.00,,---,0.00,VWS V13.01,2013-03-19 04:06:00,
2013-03-19 00:11:00,67.9,64.5,29.77,SW,224,0.0,0.0,89,0.00,,---,0.00,VWS V13.01,2013-03-19 04:11:00,
2013-03-19 00:16:00,67.8,64.4,29.78,SW,223,0.0,3.0,89,0.00,,---,0.00,VWS V13.01,2013-03-19 04:16:00,
2013-03-19 00:22:00,67.7,64.3,29.77,SW,223,0.0,3.0,89,0.00,,---,0.00,VWS V13.01,2013-03-19 04:22:00,
2013-03-19 00:27:00,67.5,64.2,29.77,SW,224,0.0,0.0,89,0.00,,---,0.00,VWS V13.01,2013-03-19 04:27:00,
2013-03-19 00:32:00,67.4,64.1,29.77,SW,224,0.0,0.0,89,0.00,,---,0.00,VWS V13.01,2013-03-19 04:32:00,
2013-03-19 00:37:00,67.3,64.3,29.77,SW,223,0.0,0.0,90,0.00,,---,0.00,VWS V13.01,2013-03-19 04:37:00,
2013-03-19 00:42:00,67.1,64.1,29.77,SW,224,0.0,0.0,90,0.00,,---,0.00,VWS V13.01,2013-03-19 04:42:00,
2013-03-19 00:47:00,67.0,64.0,29.77,SW,223,0.0,0.0,90,0.00,,---,0.00,VWS V13.01,2013-03-19 04:47:00,
2013-03-19 00:52:00,66.9,63.9,29.78,SW,223,0.0,0.0,90,0.00,,---,0.00,VWS V13.01,2013-03-19 04:52:00,
2013-03-19 00:57:00,66.8,63.8,29.77,SW,223,0.0,0.0,90,0.00,,---,0.00,VWS V13.01,2013-03-19 04:57:00,
2013-03-19 01:02:00,66.7,63.7,29.77,SW,224,0.0,0.0,90,0.00,,---,0.00,VWS V13.01,2013-03-19 05:02:00,
2013-03-19 01:07:00,66.6,63.6,29.77,SW,224,0.0,0.0,90,0.00,,---,0.00,VWS V13.01,2013-03-19 05:07:00,
2013-03-19 01:12:00,66.5,63.5,29.77,SW,224,0.0,0.0,90,0.00,,---,0.00,VWS V13.01,2013-03-19 05:12:00,
2013-03-19 01:17:00,66.3,63.3,29.77,SW,224,0.0,0.0,90,0.00,,---,0.00,VWS V13.01,2013-03-19 05:17:00,
2013-03-19 01:23:00,66.1,63.1,29.77,SW,216,0.0,0.0,90,0.00,,---,0.00,VWS V13.01,2013-03-19 05:23:00,
2013-03-19 01:28:00,66.0,63.0,29.77,SW,216,0.0,0.0,90,0.00,,---,0.00,VWS V13.01,2013-03-19 05:28:00,
2013-03-19 01:33:00,65.9,62.9,29.77,SW,216,0.0,0.0,90,0.00,,---,0.00,VWS V13.01,2013-03-19 05:33:00,
2013-03-19 01:38:00,65.7,63.0,29.76,SW,215,0.0,0.0,91,0.00,,---,0.00,VWS V13.01,2013-03-19 05:38:00,
2013-03-19 01:43:00,65.6,62.9,29.77,SW,216,0.0,0.0,91,0.00,,---,0.00,VWS V13.01,2013-03-19 05:43:00,
2013-03-19 01:48:00,65.4,62.7,29.77,SW,216,0.0,0.0,91,0.00,,---,0.00,VWS V13.01,2013-03-19 05:48:00,
2013-03-19 01:53:00,65.4,62.7,29.77,SW,216,0.0,0.0,91,0.00,,---,0.00,VWS V13.01,2013-03-19 05:53:00,
2013-03-19 01:58:00,65.2,62.5,29.77,SW,216,0.0,0.0,91,0.00,,---,0.00,VWS V13.01,2013-03-19 05:58:00,
2013-03-19 02:03:00,65.2,62.8,29.76,SW,215,0.0,0.0,92,0.00,,---,0.00,VWS V13.01,2013-03-19 06:03:00,
2013-03-19 02:08:00,65.0,62.6,29.76,SW,215,0.0,0.0,92,0.00,,---,0.00,VWS V13.01,2013-03-19 06:08:00,
2013-03-19 02:13:00,64.9,62.2,29.76,SW,216,0.0,0.0,91,0.00,,---,0.00,VWS V13.01,2013-03-19 06:13:00,
2013-03-19 02:18:00,64.7,62.3,29.76,SW,216,0.0,0.0,92,0.00,,---,0.00,VWS V13.01,2013-03-19 06:18:00,
2013-03-19 02:23:00,64.6,62.2,29.76,SW,216,0.0,0.0,92,0.00,,---,0.00,VWS V13.01,2013-03-19 06:23:00,
2013-03-19 02:28:00,64.5,62.1,29.76,SW,216,0.0,0.0,92,0.00,,---,0.00,VWS V13.01,2013-03-19 06:28:00,
2013-03-19 02:33:00,64.4,62.0,29.77,SW,215,0.0,0.0,92,0.00,,---,0.00,VWS V13.01,2013-03-19 06:33:00,
2013-03-19 02:38:00,64.2,61.8,29.78,SW,216,0.0,0.0,92,0.00,,---,0.00,VWS V13.01,2013-03-19 06:38:00,
2013-03-19 02:44:00,64.1,61.7,29.79,SW,216,0.0,0.0,92,0.00,,---,0.00,VWS V13.01,2013-03-19 06:44:00,
2013-03-19 02:49:00,64.2,62.1,29.80,SW,216,0.0,0.0,93,0.00,,---,0.00,VWS V13.01,2013-03-19 06:49:00,
2013-03-19 02:54:00,64.2,62.1,29.80,SW,216,0.0,0.0,93,0.00,,---,0.00,VWS V13.01,2013-03-19 06:54:00,
2013-03-19 02:59:00,64.3,62.2,29.80,SW,216,0.0,0.0,93,0.00,,---,0.00,VWS V13.01,2013-03-19 06:59:00,
2013-03-19 03:04:00,64.2,62.1,29.80,SW,215,0.0,0.0,93,0.00,,---,0.00,VWS V13.01,2013-03-19 07:04:00,
2013-03-19 03:09:00,64.2,62.1,29.80,SW,215,0.0,0.0,93,0.00,,---,0.00,VWS V13.01,2013-03-19 07:09:00,
2013-03-19 03:14:00,64.2,62.1,29.80,SW,216,0.0,0.0,93,0.00,,---,0.00,VWS V13.01,2013-03-19 07:14:00,
2013-03-19 03:19:00,64.1,62.0,29.80,SW,216,0.0,0.0,93,0.00,,---,0.00,VWS V13.01,2013-03-19 07:19:00,
2013-03-19 03:24:00,64.0,61.9,29.80,SW,215,0.0,0.0,93,0.00,,---,0.00,VWS V13.01,2013-03-19 07:24:00,
2013-03-19 03:29:00,63.9,61.8,29.79,SW,216,0.0,0.0,93,0.00,,---,0.00,VWS V13.01,2013-03-19 07:29:00,
2013-03-19 03:34:00,63.8,61.7,29.78,SW,216,0.0,0.0,93,0.00,,---,0.00,VWS V13.01,2013-03-19 07:34:00,
2013-03-19 03:39:00,63.7,61.6,29.78,SW,215,0.0,0.0,93,0.00,,---,0.00,VWS V13.01,2013-03-19 07:39:00,
2013-03-19 03:44:00,63.6,61.5,29.78,SW,216,0.0,0.0,93,0.00,,---,0.00,VWS V13.01,2013-03-19 07:44:00,
2013-03-19 03:49:00,63.5,61.4,29.79,SW,216,0.0,0.0,93,0.00,,---,0.00,VWS V13.01,2013-03-19 07:49:00,
2013-03-19 03:55:00,63.4,61.3,29.79,SW,215,0.0,0.0,93,0.00,,---,0.00,VWS V13.01,2013-03-19 07:55:00,
2013-03-19 04:00:00,63.3,61.2,29.79,SW,216,0.0,0.0,93,0.00,,---,0.00,VWS V13.01,2013-03-19 08:00:00,
2013-03-19 04:05:00,63.3,61.5,29.79,SW,216,0.0,0.0,94,0.00,,---,0.00,VWS V13.01,2013-03-19 08:05:00,
2013-03-19 04:10:00,63.3,61.5,29.78,SW,216,0.0,0.0,94,0.00,,---,0.00,VWS V13.01,2013-03-19 08:10:00,
2013-03-19 04:15:00,63.2,61.5,29.79,SW,216,0.0,0.0,94,0.00,,---,0.00,VWS V13.01,2013-03-19 08:15:00,
2013-03-19 04:20:00,63.2,61.5,29.79,SW,216,0.0,0.0,94,0.00,,---,0.00,VWS V13.01,2013-03-19 08:20:00,
2013-03-19 04:25:00,63.2,61.5,29.79,SW,216,0.0,0.0,94,0.00,,---,0.00,VWS V13.01,2013-03-19 08:25:00,
2013-03-19 04:30:00,63.2,61.5,29.79,SW,215,0.0,0.0,94,0.00,,---,0.00,VWS V13.01,2013-03-19 08:30:00,
2013-03-19 04:35:00,63.1,61.3,29.79,SW,216,0.0,0.0,94,0.00,,---,0.00,VWS V13.01,2013-03-19 08:35:00,
2013-03-19 04:40:00,63.1,61.3,29.79,SW,216,0.0,0.0,94,0.00,,---,0.00,VWS V13.01,2013-03-19 08:40:00,
2013-03-19 04:45:00,63.0,61.2,29.79,SW,216,0.0,0.0,94,0.00,,---,0.00,VWS V13.01,2013-03-19 08:45:00,
2013-03-19 04:50:00,63.0,61.2,29.79,SW,215,0.0,0.0,94,0.00,,---,0.00,VWS V13.01,2013-03-19 08:50:00,
2013-03-19 04:55:00,63.1,61.3,29.78,SW,215,0.0,0.0,94,0.00,,---,0.00,VWS V13.01,2013-03-19 08:55:00,
2013-03-19 05:00:00,63.1,61.3,29.78,SW,216,0.0,0.0,94,0.00,,---,0.00,VWS V13.01,2013-03-19 09:00:00,
2013-03-19 05:06:00,63.1,61.3,29.77,SW,216,0.0,0.0,94,0.00,,---,0.00,VWS V13.01,2013-03-19 09:06:00,
2013-03-19 05:11:00,63.0,61.2,29.76,SW,215,0.0,0.0,94,0.00,,---,0.00,VWS V13.01,2013-03-19 09:11:00,
2013-03-19 05:16:00,63.1,61.3,29.76,SW,215,0.0,0.0,94,0.00,,---,0.00,VWS V13.01,2013-03-19 09:16:00,
2013-03-19 05:21:00,63.2,61.5,29.76,SW,216,0.0,2.0,94,0.00,,---,0.00,VWS V13.01,2013-03-19 09:21:00,
2013-03-19 05:26:00,63.3,61.5,29.77,SW,215,0.0,0.0,94,0.00,,---,0.00,VWS V13.01,2013-03-19 09:26:00,
2013-03-19 05:31:00,63.2,61.5,29.78,SW,215,0.0,0.0,94,0.00,,---,0.00,VWS V13.01,2013-03-19 09:31:00,
2013-03-19 05:36:00,63.0,61.2,29.78,SW,215,0.0,0.0,94,0.00,,---,0.00,VWS V13.01,2013-03-19 09:36:00,
2013-03-19 05:41:00,62.8,61.0,29.77,SW,216,0.0,2.0,94,0.00,,---,0.00,VWS V13.01,2013-03-19 09:41:00,
2013-03-19 05:46:00,62.9,61.2,29.78,SW,215,0.0,0.0,94,0.00,,---,0.00,VWS V13.01,2013-03-19 09:46:00,
2013-03-19 05:52:00,62.9,61.2,29.78,SW,216,0.0,0.0,94,0.00,,---,0.00,VWS V13.01,2013-03-19 09:52:00,
2013-03-19 05:57:00,62.8,61.0,29.78,SW,216,0.0,0.0,94,0.00,,---,0.00,VWS V13.01,2013-03-19 09:57:00,
2013-03-19 06:02:00,62.7,61.0,29.79,SW,215,0.0,0.0,94,0.00,,---,0.00,VWS V13.01,2013-03-19 10:02:00,
2013-03-19 06:07:00,62.6,60.8,29.79,SW,215,0.0,0.0,94,0.00,,---,0.00,VWS V13.01,2013-03-19 10:07:00,
2013-03-19 06:12:00,62.4,60.7,29.79,SW,215,0.0,0.0,94,0.00,,---,0.00,VWS V13.01,2013-03-19 10:12:00,
2013-03-19 06:17:00,62.4,61.0,29.79,SW,215,0.0,0.0,95,0.00,,---,0.00,VWS V13.01,2013-03-19 10:17:00,
2013-03-19 06:22:00,62.3,60.8,29.79,SW,215,0.0,0.0,95,0.00,,---,0.00,VWS V13.01,2013-03-19 10:22:00,
2013-03-19 06:27:00,62.3,60.8,29.79,SW,215,0.0,0.0,95,0.00,,---,0.00,VWS V13.01,2013-03-19 10:27:00,
2013-03-19 06:32:00,62.1,60.4,29.79,SW,215,0.0,0.0,94,0.00,,---,0.00,VWS V13.01,2013-03-19 10:32:00,
2013-03-19 06:37:00,62.0,60.3,29.79,SW,215,0.0,0.0,94,0.00,,---,0.00,VWS V13.01,2013-03-19 10:37:00,
2013-03-19 06:42:00,61.9,60.2,29.81,SW,216,0.0,0.0,94,0.00,,---,0.00,VWS V13.01,2013-03-19 10:42:00,
2013-03-19 06:47:00,61.7,60.0,29.80,SW,215,0.0,0.0,94,0.00,,---,0.00,VWS V13.01,2013-03-19 10:47:00,
2013-03-19 06:53:00,61.8,60.1,29.81,SW,216,0.0,0.0,94,0.00,,---,0.00,VWS V13.01,2013-03-19 10:53:00,
2013-03-19 06:58:00,61.8,60.1,29.80,SW,215,0.0,0.0,94,0.00,,---,0.00,VWS V13.01,2013-03-19 10:58:00,
2013-03-19 07:03:00,61.9,60.5,29.82,SW,216,0.0,0.0,95,0.00,,---,0.00,VWS V13.01,2013-03-19 11:03:00,
2013-03-19 07:08:00,62.0,60.6,29.83,SW,216,0.0,0.0,95,0.00,,---,0.00,VWS V13.01,2013-03-19 11:08:00,
2013-03-19 07:13:00,62.1,60.7,29.84,SW,215,0.0,0.0,95,0.00,,---,0.00,VWS V13.01,2013-03-19 11:13:00,
2013-03-19 07:18:00,62.2,60.8,29.83,SW,215,0.0,0.0,95,0.00,,---,0.00,VWS V13.01,2013-03-19 11:18:00,
2013-03-19 07:23:00,62.4,61.0,29.84,SW,216,0.0,0.0,95,0.00,,---,0.00,VWS V13.01,2013-03-19 11:23:00,
2013-03-19 07:28:00,62.4,61.0,29.83,SW,216,0.0,0.0,95,0.00,,---,0.00,VWS V13.01,2013-03-19 11:28:00,
2013-03-19 07:33:00,62.5,61.0,29.83,SW,215,0.0,0.0,95,0.00,,---,0.00,VWS V13.01,2013-03-19 11:33:00,
2013-03-19 07:38:00,62.5,61.0,29.84,SW,216,0.0,0.0,95,0.00,,---,0.00,VWS V13.01,2013-03-19 11:38:00,
2013-03-19 07:43:00,62.5,61.0,29.84,SW,216,0.0,0.0,95,0.00,,---,0.00,VWS V13.01,2013-03-19 11:43:00,
2013-03-19 07:48:00,62.5,61.0,29.84,SW,216,0.0,0.0,95,0.00,,---,0.00,VWS V13.01,2013-03-19 11:48:00,
2013-03-19 07:53:00,62.5,61.0,29.84,SW,215,0.0,0.0,95,0.00,,---,0.00,VWS V13.01,2013-03-19 11:53:00,
2013-03-19 07:58:00,62.3,60.8,29.84,SSW,196,0.0,1.0,95,0.00,,---,0.00,VWS V13.01,2013-03-19 11:58:00,
2013-03-19 08:03:00,62.2,60.8,29.84,SSW,196,0.0,1.0,95,0.00,,---,0.00,VWS V13.01,2013-03-19 12:03:00,
2013-03-19 08:08:00,62.2,60.8,29.85,SSW,196,0.0,0.0,95,0.00,,---,0.00,VWS V13.01,2013-03-19 12:08:00,
2013-03-19 08:13:00,62.2,60.8,29.84,SSW,196,0.0,0.0,95,0.00,,---,0.00,VWS V13.01,2013-03-19 12:13:00,
2013-03-19 08:19:00,62.2,60.8,29.84,SSW,195,0.0,0.0,95,0.00,,---,0.00,VWS V13.01,2013-03-19 12:19:00,
2013-03-19 08:24:00,62.3,60.8,29.84,SSW,196,0.0,0.0,95,0.00,,---,0.00,VWS V13.01,2013-03-19 12:24:00,
2013-03-19 08:29:00,62.3,60.8,29.84,SSW,196,0.0,0.0,95,0.00,,---,0.00,VWS V13.01,2013-03-19 12:29:00,
2013-03-19 08:34:00,62.3,60.8,29.84,East,79,0.0,0.0,95,0.00,,---,0.00,VWS V13.01,2013-03-19 12:34:00,
2013-03-19 08:39:00,62.4,61.0,29.85,East,79,0.0,0.0,95,0.00,,---,0.00,VWS V13.01,2013-03-19 12:39:00,
2013-03-19 08:44:00,62.5,61.0,29.84,East,79,0.0,0.0,95,0.00,,---,0.00,VWS V13.01,2013-03-19 12:44:00,
2013-03-19 08:49:00,62.7,61.2,29.85,East,79,0.0,0.0,95,0.00,,---,0.00,VWS V13.01,2013-03-19 12:49:00,
2013-03-19 08:54:00,62.9,61.5,29.85,East,79,0.0,0.0,95,0.00,,---,0.00,VWS V13.01,2013-03-19 12:54:00,
2013-03-19 08:59:00,63.1,61.7,29.86,East,79,0.0,0.0,95,0.00,,---,0.00,VWS V13.01,2013-03-19 12:59:00,
2013-03-19 09:04:00,63.4,62.0,29.86,East,79,0.0,0.0,95,0.00,,---,0.00,VWS V13.01,2013-03-19 13:04:00,
2013-03-19 09:09:00,63.7,62.5,29.86,East,79,0.0,0.0,96,0.00,,---,0.00,VWS V13.01,2013-03-19 13:09:00,
2013-03-19 09:14:00,64.0,62.8,29.86,East,79,0.0,0.0,96,0.00,,---,0.00,VWS V13.01,2013-03-19 13:14:00,
2013-03-19 09:19:00,64.3,63.1,29.85,East,79,0.0,0.0,96,0.00,,---,0.00,VWS V13.01,2013-03-19 13:19:00,
2013-03-19 09:24:00,64.7,63.5,29.85,East,79,0.0,0.0,96,0.00,,---,0.00,VWS V13.01,2013-03-19 13:24:00,
2013-03-19 09:29:00,65.3,64.1,29.86,ENE,57,4.0,4.0,96,0.00,,---,0.00,VWS V13.01,2013-03-19 13:29:00,
2013-03-19 09:34:00,65.9,64.7,29.86,NE,34,0.0,4.0,96,0.00,,---,0.00,VWS V13.01,2013-03-19 13:34:00,
2013-03-19 09:40:00,66.4,65.2,29.85,NE,36,0.0,3.0,96,0.00,,---,0.00,VWS V13.01,2013-03-19 13:40:00,
2013-03-19 09:45:00,66.9,65.7,29.86,NNE,32,0.0,3.0,96,0.00,,---,0.00,VWS V13.01,2013-03-19 13:45:00,
2013-03-19 09:50:00,67.3,65.8,29.86,NNE,32,0.0,1.0,95,0.00,,---,0.00,VWS V13.01,2013-03-19 13:50:00,
2013-03-19 09:55:00,68.0,66.2,29.86,NNE,32,0.0,2.0,94,0.00,,---,0.00,VWS V13.01,2013-03-19 13:55:00,
2013-03-19 10:00:00,68.8,66.7,29.86,NNE,31,0.0,3.0,93,0.00,,---,0.00,VWS V13.01,2013-03-19 14:00:00,
2013-03-19 10:05:00,69.5,66.8,29.85,NE,46,0.0,3.0,91,0.00,,---,0.00,VWS V13.01,2013-03-19 14:05:00,
2013-03-19 10:10:00,70.2,66.8,29.86,NE,49,0.0,2.0,89,0.00,,---,0.00,VWS V13.01,2013-03-19 14:10:00,
2013-03-19 10:15:00,70.7,66.7,29.85,NE,53,0.0,3.0,87,0.00,,---,0.00,VWS V13.01,2013-03-19 14:15:00,
2013-03-19 10:20:00,71.3,66.6,29.85,ENE,63,0.0,3.0,85,0.00,,---,0.00,VWS V13.01,2013-03-19 14:20:00,
2013-03-19 10:25:00,71.7,66.9,29.85,SE,145,0.0,3.0,85,0.00,,---,0.00,VWS V13.01,2013-03-19 14:25:00,
2013-03-19 10:30:00,71.8,66.7,29.85,SE,144,0.0,2.0,84,0.00,,---,0.00,VWS V13.01,2013-03-19 14:30:00,
2013-03-19 10:35:00,72.1,66.7,29.85,SE,140,0.0,3.0,83,0.00,,---,0.00,VWS V13.01,2013-03-19 14:35:00,
2013-03-19 10:40:00,72.0,66.2,29.85,SE,142,0.0,0.0,82,0.00,,---,0.00,VWS V13.01,2013-03-19 14:40:00,
2013-03-19 10:45:00,72.2,66.1,29.84,SE,146,0.0,4.0,81,0.00,,---,0.00,VWS V13.01,2013-03-19 14:45:00,
2013-03-19 10:50:00,72.2,66.1,29.84,SE,146,0.0,2.0,81,0.00,,---,0.00,VWS V13.01,2013-03-19 14:50:00,
2013-03-19 10:55:00,72.7,66.5,29.84,SE,145,0.0,0.0,81,0.00,,---,0.00,VWS V13.01,2013-03-19 14:55:00,
2013-03-19 11:00:00,72.9,66.0,29.84,SSE,148,0.0,4.0,79,0.00,,---,0.00,VWS V13.01,2013-03-19 15:00:00,
2013-03-19 11:05:00,73.1,65.8,29.84,SSE,148,1.0,2.0,78,0.00,,---,0.00,VWS V13.01,2013-03-19 15:05:00,
2013-03-19 11:10:00,73.5,65.5,29.83,SSE,148,0.0,2.0,76,0.00,,---,0.00,VWS V13.01,2013-03-19 15:10:00,
2013-03-19 11:16:00,73.8,66.2,29.83,SSE,149,0.0,1.0,77,0.00,,---,0.00,VWS V13.01,2013-03-19 15:16:00,
2013-03-19 11:21:00,74.0,65.6,29.83,SSE,149,0.0,4.0,75,0.00,,---,0.00,VWS V13.01,2013-03-19 15:21:00,
2013-03-19 11:26:00,74.4,65.2,29.84,SSE,149,0.0,0.0,73,0.00,,---,0.00,VWS V13.01,2013-03-19 15:26:00,
2013-03-19 11:31:00,74.8,65.6,29.84,SSE,150,0.0,4.0,73,0.00,,---,0.00,VWS V13.01,2013-03-19 15:31:00,
2013-03-19 11:36:00,75.2,66.0,29.84,SSE,149,0.0,0.0,73,0.00,,---,0.00,VWS V13.01,2013-03-19 15:36:00,
2013-03-19 11:41:00,75.5,66.2,29.85,SSE,149,0.0,0.0,73,0.00,,---,0.00,VWS V13.01,2013-03-19 15:41:00,
2013-03-19 11:46:00,75.5,66.2,29.85,SW,225,0.0,5.0,73,0.00,,---,0.00,VWS V13.01,2013-03-19 15:46:00,
2013-03-19 11:51:00,75.6,66.3,29.85,SW,225,0.0,5.0,73,0.00,,---,0.00,VWS V13.01,2013-03-19 15:51:00,
2013-03-19 11:56:00,75.5,67.4,29.85,SW,225,0.0,0.0,76,0.00,,---,0.00,VWS V13.01,2013-03-19 15:56:00,
2013-03-19 12:01:00,75.4,66.2,29.85,SW,225,0.0,3.0,73,0.00,,---,0.00,VWS V13.01,2013-03-19 16:01:00,
2013-03-19 12:07:00,75.6,65.9,29.86,SW,225,0.0,0.0,72,0.00,,---,0.00,VWS V13.01,2013-03-19 16:07:00,
2013-03-19 12:12:00,76.2,66.5,29.86,South,190,0.0,4.0,72,0.00,,---,0.00,VWS V13.01,2013-03-19 16:12:00,
2013-03-19 12:17:00,76.2,66.5,29.86,South,191,0.0,0.0,72,0.00,,---,0.00,VWS V13.01,2013-03-19 16:17:00,
2013-03-19 12:22:00,76.4,67.1,29.86,South,191,0.0,0.0,73,0.00,,---,0.00,VWS V13.01,2013-03-19 16:22:00,
2013-03-19 12:27:00,76.8,67.1,29.86,South,191,0.0,0.0,72,0.00,,---,0.00,VWS V13.01,2013-03-19 16:27:00,
2013-03-19 12:32:00,77.2,67.1,29.86,South,191,0.0,0.0,71,0.00,,---,0.00,VWS V13.01,2013-03-19 16:32:00,
2013-03-19 12:37:00,77.6,67.5,29.86,South,191,0.0,0.0,71,0.00,,---,0.00,VWS V13.01,2013-03-19 16:37:00,
2013-03-19 12:42:00,78.0,67.8,29.85,South,191,0.0,0.0,71,0.00,,---,0.00,VWS V13.01,2013-03-19 16:42:00,
2013-03-19 12:47:00,78.4,67.4,29.85,South,191,0.0,0.0,69,0.00,,---,0.00,VWS V13.01,2013-03-19 16:47:00,
2013-03-19 12:52:00,78.6,66.3,29.84,SSW,195,3.0,5.0,66,0.00,,---,0.00,VWS V13.01,2013-03-19 16:52:00,
2013-03-19 12:57:00,78.5,66.6,29.84,SSW,195,2.0,3.0,67,0.00,,---,0.00,VWS V13.01,2013-03-19 16:57:00,
2013-03-19 13:03:00,78.5,65.8,29.84,SSW,196,2.0,4.0,65,0.00,,---,0.00,VWS V13.01,2013-03-19 17:03:00,
2013-03-19 13:08:00,78.7,66.8,29.83,SSW,195,0.0,0.0,67,0.00,,---,0.00,VWS V13.01,2013-03-19 17:08:00,
2013-03-19 13:13:00,79.0,67.1,29.83,SSW,198,0.0,4.0,67,0.00,,---,0.00,VWS V13.01,2013-03-19 17:13:00,
2013-03-19 13:18:00,79.3,66.5,29.83,SSW,203,0.0,4.0,65,0.00,,---,0.00,VWS V13.01,2013-03-19 17:18:00,
2013-03-19 13:23:00,79.6,66.8,29.83,SSW,205,2.0,5.0,65,0.00,,---,0.00,VWS V13.01,2013-03-19 17:23:00,
2013-03-19 13:28:00,79.9,67.5,29.83,SSW,205,0.0,3.0,66,0.00,,---,0.00,VWS V13.01,2013-03-19 17:28:00,
2013-03-19 13:33:00,80.0,67.2,29.82,SSW,205,0.0,3.0,65,0.00,,---,0.00,VWS V13.01,2013-03-19 17:33:00,
2013-03-19 13:38:00,80.1,66.8,29.82,SSW,205,0.0,2.0,64,0.00,,---,0.00,VWS V13.01,2013-03-19 17:38:00,
2013-03-19 13:43:00,80.4,67.6,29.81,SSW,204,0.0,2.0,65,0.00,,---,0.00,VWS V13.01,2013-03-19 17:43:00,
2013-03-19 13:48:00,80.9,65.7,29.81,SSW,208,1.0,4.0,60,0.00,,---,0.00,VWS V13.01,2013-03-19 17:48:00,
2013-03-19 13:53:00,81.4,67.1,29.81,SSW,209,0.0,4.0,62,0.00,,---,0.00,VWS V13.01,2013-03-19 17:53:00,
2013-03-19 13:58:00,81.4,68.1,29.81,SSW,209,0.0,4.0,64,0.00,,---,0.00,VWS V13.01,2013-03-19 17:58:00,
2013-03-19 14:04:00,81.5,67.7,29.80,SSW,209,0.0,4.0,63,0.00,,---,0.00,VWS V13.01,2013-03-19 18:04:00,
2013-03-19 14:09:00,81.6,67.3,29.80,SSW,208,0.0,3.0,62,0.00,,---,0.00,VWS V13.01,2013-03-19 18:09:00,
2013-03-19 14:14:00,81.9,67.6,29.79,SSW,207,0.0,3.0,62,0.00,,---,0.00,VWS V13.01,2013-03-19 18:14:00,
2013-03-19 14:19:00,82.2,66.5,29.79,SSW,208,2.0,3.0,59,0.00,,---,0.00,VWS V13.01,2013-03-19 18:19:00,
2013-03-19 14:24:00,82.5,66.2,29.79,SSW,208,1.0,6.0,58,0.00,,---,0.00,VWS V13.01,2013-03-19 18:24:00,
2013-03-19 14:29:00,82.4,65.7,29.79,SW,214,4.0,7.0,57,0.00,,---,0.00,VWS V13.01,2013-03-19 18:29:00,
2013-03-19 14:34:00,82.4,65.7,29.78,SW,221,3.0,7.0,57,0.00,,---,0.00,VWS V13.01,2013-03-19 18:34:00,
2013-03-19 14:39:00,82.5,66.7,29.78,SW,222,6.0,6.0,59,0.00,,---,0.00,VWS V13.01,2013-03-19 18:39:00,
2013-03-19 14:44:00,82.7,66.9,29.78,SW,221,3.0,7.0,59,0.00,,---,0.00,VWS V13.01,2013-03-19 18:44:00,
2013-03-19 14:49:00,82.9,67.6,29.78,SW,221,0.0,4.0,60,0.00,,---,0.00,VWS V13.01,2013-03-19 18:49:00,
2013-03-19 14:54:00,83.0,68.2,29.78,SW,221,0.0,4.0,61,0.00,,---,0.00,VWS V13.01,2013-03-19 18:54:00,
2013-03-19 14:59:00,83.2,66.9,29.77,SSW,208,0.0,4.0,58,0.00,,---,0.00,VWS V13.01,2013-03-19 18:59:00,
2013-03-19 15:05:00,83.3,68.0,29.77,South,191,1.0,4.0,60,0.00,,---,0.00,VWS V13.01,2013-03-19 19:05:00,
2013-03-19 15:10:00,83.4,67.1,29.77,SSW,201,0.0,5.0,58,0.00,,---,0.00,VWS V13.01,2013-03-19 19:10:00,
2013-03-19 15:15:00,83.6,66.3,29.76,SSW,200,0.0,5.0,56,0.00,,---,0.00,VWS V13.01,2013-03-19 19:15:00,
2013-03-19 15:20:00,83.8,68.4,29.76,SSW,201,0.0,0.0,60,0.00,,---,0.00,VWS V13.01,2013-03-19 19:20:00,
2013-03-19 15:25:00,83.7,67.9,29.76,SSW,201,2.0,4.0,59,0.00,,---,0.00,VWS V13.01,2013-03-19 19:25:00,
2013-03-19 15:30:00,84.1,65.7,29.76,SSW,198,3.0,5.0,54,0.00,,---,0.00,VWS V13.01,2013-03-19 19:30:00,
2013-03-19 15:35:00,83.9,66.5,29.76,SSW,196,0.0,5.0,56,0.00,,---,0.00,VWS V13.01,2013-03-19 19:35:00,
2013-03-19 15:40:00,83.8,68.0,29.75,East,100,1.0,3.0,59,0.00,,---,0.00,VWS V13.01,2013-03-19 19:40:00,
2013-03-19 15:45:00,84.2,67.3,29.75,ESE,122,3.0,5.0,57,0.00,,---,0.00,VWS V13.01,2013-03-19 19:45:00,
2013-03-19 15:50:00,84.1,66.2,29.75,SSW,194,2.0,5.0,55,0.00,,---,0.00,VWS V13.01,2013-03-19 19:50:00,
2013-03-19 15:55:00,84.1,65.1,29.75,SSW,199,1.0,5.0,53,0.00,,---,0.00,VWS V13.01,2013-03-19 19:55:00,
2013-03-19 16:00:00,84.0,65.1,29.75,SSW,199,0.0,4.0,53,0.00,,---,0.00,VWS V13.01,2013-03-19 20:00:00,
2013-03-19 16:05:00,84.1,65.7,29.75,SSW,199,2.0,4.0,54,0.00,,---,0.00,VWS V13.01,2013-03-19 20:05:00,
2013-03-19 16:10:00,84.3,65.3,29.74,SSW,201,0.0,4.0,53,0.00,,---,0.00,VWS V13.01,2013-03-19 20:10:00,
2013-03-19 16:15:00,84.5,68.6,29.74,SSW,201,0.0,0.0,59,0.00,,---,0.00,VWS V13.01,2013-03-19 20:15:00,
2013-03-19 16:20:00,84.5,65.5,29.75,SSW,207,2.0,5.0,53,0.00,,---,0.00,VWS V13.01,2013-03-19 20:20:00,
2013-03-19 16:25:00,84.4,65.4,29.75,SSW,194,0.0,1.0,53,0.00,,---,0.00,VWS V13.01,2013-03-19 20:25:00,
2013-03-19 16:30:00,84.3,65.9,29.74,South,191,1.0,4.0,54,0.00,,---,0.00,VWS V13.01,2013-03-19 20:30:00,
2013-03-19 16:35:00,84.5,67.1,29.74,SSW,192,0.0,0.0,56,0.00,,---,0.00,VWS V13.01,2013-03-19 20:35:00,
2013-03-19 16:40:00,84.5,66.6,29.74,East,92,6.0,6.0,55,0.00,,---,0.00,VWS V13.01,2013-03-19 20:40:00,
2013-03-19 16:46:00,84.8,66.8,29.74,ESE,121,0.0,0.0,55,0.00,,---,0.00,VWS V13.01,2013-03-19 20:46:00,
2013-03-19 16:51:00,84.7,68.8,29.74,ESE,121,0.0,0.0,59,0.00,,---,0.00,VWS V13.01,2013-03-19 20:51:00,
2013-03-19 16:56:00,84.4,68.0,29.74,ESE,121,0.0,0.0,58,0.00,,---,0.00,VWS V13.01,2013-03-19 20:56:00,
2013-03-19 17:01:00,84.0,66.6,29.74,ESE,121,0.0,1.0,56,0.00,,---,0.00,VWS V13.01,2013-03-19 21:01:00,
2013-03-19 17:06:00,83.3,65.5,29.74,SW,225,0.0,3.0,55,0.00,,---,0.00,VWS V13.01,2013-03-19 21:06:00,
2013-03-19 17:11:00,83.0,68.7,29.74,SW,225,0.0,3.0,62,0.00,,---,0.00,VWS V13.01,2013-03-19 21:11:00,
2013-03-19 17:16:00,82.8,69.4,29.74,SW,225,0.0,0.0,64,0.00,,---,0.00,VWS V13.01,2013-03-19 21:16:00,
2013-03-19 17:21:00,82.6,67.3,29.74,SW,225,0.0,0.0,60,0.00,,---,0.00,VWS V13.01,2013-03-19 21:21:00,
2013-03-19 17:27:00,82.4,65.7,29.74,SW,223,2.0,2.0,57,0.00,,---,0.00,VWS V13.01,2013-03-19 21:27:00,
2013-03-19 17:32:00,82.4,65.7,29.74,SW,223,0.0,2.0,57,0.00,,---,0.00,VWS V13.01,2013-03-19 21:32:00,
2013-03-19 17:37:00,82.6,66.8,29.74,SW,223,1.0,4.0,59,0.00,,---,0.00,VWS V13.01,2013-03-19 21:37:00,
2013-03-19 17:42:00,82.5,65.2,29.74,SW,221,1.0,4.0,56,0.00,,---,0.00,VWS V13.01,2013-03-19 21:42:00,
2013-03-19 17:47:00,82.3,66.6,29.74,SSW,210,3.0,3.0,59,0.00,,---,0.00,VWS V13.01,2013-03-19 21:47:00,
2013-03-19 17:52:00,82.1,65.4,29.74,SSW,211,0.0,3.0,57,0.00,,---,0.00,VWS V13.01,2013-03-19 21:52:00,
2013-03-19 17:57:00,81.9,66.7,29.74,SSW,211,0.0,0.0,60,0.00,,---,0.00,VWS V13.01,2013-03-19 21:57:00,
2013-03-19 18:02:00,81.8,66.1,29.74,SSW,211,0.0,0.0,59,0.00,,---,0.00,VWS V13.01,2013-03-19 22:02:00,
2013-03-19 18:07:00,81.7,66.9,29.74,SSW,211,0.0,0.0,61,0.00,,---,0.00,VWS V13.01,2013-03-19 22:07:00,
2013-03-19 18:13:00,81.6,67.3,29.74,SSW,211,0.0,0.0,62,0.00,,---,0.00,VWS V13.01,2013-03-19 22:13:00,
2013-03-19 18:18:00,81.4,66.7,29.74,SSW,211,0.0,0.0,61,0.00,,---,0.00,VWS V13.01,2013-03-19 22:18:00,
2013-03-19 18:23:00,81.4,65.7,29.74,SSW,211,0.0,1.0,59,0.00,,---,0.00,VWS V13.01,2013-03-19 22:23:00,
2013-03-19 18:28:00,81.4,66.7,29.74,SSW,211,0.0,0.0,61,0.00,,---,0.00,VWS V13.01,2013-03-19 22:28:00,
2013-03-19 18:33:00,81.3,66.6,29.74,SSW,211,0.0,2.0,61,0.00,,---,0.00,VWS V13.01,2013-03-19 22:33:00,
2013-03-19 18:38:00,81.2,65.5,29.74,SSW,211,2.0,5.0,59,0.00,,---,0.00,VWS V13.01,2013-03-19 22:38:00,
2013-03-19 18:43:00,81.1,66.9,29.75,SSW,212,0.0,5.0,62,0.00,,---,0.00,VWS V13.01,2013-03-19 22:43:00,
2013-03-19 18:48:00,80.9,65.7,29.75,SSW,211,0.0,0.0,60,0.00,,---,0.00,VWS V13.01,2013-03-19 22:48:00,
2013-03-19 18:53:00,80.7,66.5,29.75,SSW,212,0.0,3.0,62,0.00,,---,0.00,VWS V13.01,2013-03-19 22:53:00,
2013-03-19 18:58:00,80.5,65.8,29.76,SSW,212,0.0,3.0,61,0.00,,---,0.00,VWS V13.01,2013-03-19 22:58:00,
2013-03-19 19:03:00,80.3,66.1,29.76,SSW,212,0.0,3.0,62,0.00,,---,0.00,VWS V13.01,2013-03-19 23:03:00,
2013-03-19 19:08:00,80.1,65.9,29.75,SSW,212,0.0,0.0,62,0.00,,---,0.00,VWS V13.01,2013-03-19 23:08:00,
2013-03-19 19:13:00,79.8,67.9,29.76,SSW,211,0.0,0.0,67,0.00,,---,0.00,VWS V13.01,2013-03-19 23:13:00,
2013-03-19 19:18:00,79.6,67.2,29.76,SSW,212,0.0,0.0,66,0.00,,---,0.00,VWS V13.01,2013-03-19 23:18:00,
2013-03-19 19:23:00,79.3,66.5,29.76,SSW,212,0.0,2.0,65,0.00,,---,0.00,VWS V13.01,2013-03-19 23:23:00,
2013-03-19 19:29:00,79.1,66.3,29.76,NNW,338,0.0,5.0,65,0.00,,---,0.00,VWS V13.01,2013-03-19 23:29:00,
2013-03-19 19:34:00,78.7,66.0,29.76,WNW,289,0.0,5.0,65,0.00,,---,0.00,VWS V13.01,2013-03-19 23:34:00,
2013-03-19 19:39:00,78.5,66.2,29.76,WNW,288,0.0,0.0,66,0.00,,---,0.00,VWS V13.01,2013-03-19 23:39:00,
2013-03-19 19:44:00,78.0,65.7,29.77,WNW,287,0.0,4.0,66,0.00,,---,0.00,VWS V13.01,2013-03-19 23:44:00,
2013-03-19 19:49:00,77.6,65.8,29.77,WNW,284,0.0,2.0,67,0.00,,---,0.00,VWS V13.01,2013-03-19 23:49:00,
2013-03-19 19:54:00,77.2,65.8,29.77,WNW,294,0.0,2.0,68,0.00,,---,0.00,VWS V13.01,2013-03-19 23:54:00,
2013-03-19 19:59:00,76.6,66.1,29.78,WNW,294,0.0,2.0,70,0.00,,---,0.00,VWS V13.01,2013-03-19 23:59:00,
2013-03-19 20:04:00,76.0,65.5,29.77,WNW,294,0.0,2.0,70,0.00,,---,0.00,VWS V13.01,2013-03-20 00:04:00,
2013-03-19 20:09:00,75.7,65.2,29.77,WNW,294,0.0,0.0,70,0.00,,---,0.00,VWS V13.01,2013-03-20 00:09:00,
2013-03-19 20:14:00,75.5,65.0,29.78,WNW,294,0.0,0.0,70,0.00,,---,0.00,VWS V13.01,2013-03-20 00:14:00,
2013-03-19 20:19:00,75.3,65.3,29.78,WNW,294,0.0,0.0,71,0.00,,---,0.00,VWS V13.01,2013-03-20 00:19:00,
2013-03-19 20:24:00,75.0,65.0,29.78,WNW,294,0.0,0.0,71,0.00,,---,0.00,VWS V13.01,2013-03-20 00:24:00,
2013-03-19 20:29:00,74.7,65.1,29.78,WNW,294,0.0,0.0,72,0.00,,---,0.00,VWS V13.01,2013-03-20 00:29:00,
2013-03-19 20:34:00,74.4,64.8,29.78,WNW,294,0.0,0.0,72,0.00,,---,0.00,VWS V13.01,2013-03-20 00:34:00,
2013-03-19 20:39:00,74.1,64.9,29.78,WNW,294,0.0,0.0,73,0.00,,---,0.00,VWS V13.01,2013-03-20 00:39:00,
2013-03-19 20:44:00,73.9,64.7,29.78,WNW,294,0.0,1.0,73,0.00,,---,0.00,VWS V13.01,2013-03-20 00:44:00,
2013-03-19 20:49:00,73.6,64.4,29.78,WNW,294,0.0,0.0,73,0.00,,---,0.00,VWS V13.01,2013-03-20 00:49:00,
2013-03-19 20:55:00,73.4,64.6,29.78,WNW,294,0.0,0.0,74,0.00,,---,0.00,VWS V13.01,2013-03-20 00:55:00,
2013-03-19 21:00:00,73.1,64.3,29.78,WNW,296,0.0,1.0,74,0.00,,---,0.00,VWS V13.01,2013-03-20 01:00:00,
2013-03-19 21:05:00,72.8,64.0,29.78,WNW,296,0.0,1.0,74,0.00,,---,0.00,VWS V13.01,2013-03-20 01:05:00,
2013-03-19 21:10:00,72.6,64.2,29.78,WNW,296,0.0,0.0,75,0.00,,---,0.00,VWS V13.01,2013-03-20 01:10:00,
2013-03-19 21:15:00,72.3,63.9,29.79,WNW,297,0.0,1.0,75,0.00,,---,0.00,VWS V13.01,2013-03-20 01:15:00,
2013-03-19 21:20:00,72.1,63.8,29.79,WNW,298,0.0,0.0,75,0.00,,---,0.00,VWS V13.01,2013-03-20 01:20:00,
2013-03-19 21:25:00,71.8,63.5,29.79,WNW,299,0.0,2.0,75,0.00,,---,0.00,VWS V13.01,2013-03-20 01:25:00,
2013-03-19 21:30:00,71.5,63.2,29.80,WNW,300,0.0,0.0,75,0.00,,---,0.00,VWS V13.01,2013-03-20 01:30:00,
2013-03-19 21:35:00,71.3,63.3,29.80,WNW,300,0.0,0.0,76,0.00,,---,0.00,VWS V13.01,2013-03-20 01:35:00,
2013-03-19 21:40:00,71.0,63.1,29.80,WNW,300,0.0,1.0,76,0.00,,---,0.00,VWS V13.01,2013-03-20 01:40:00,
2013-03-19 21:45:00,70.8,62.9,29.81,WNW,301,0.0,0.0,76,0.00,,---,0.00,VWS V13.01,2013-03-20 01:45:00,
2013-03-19 21:50:00,70.5,62.6,29.80,WNW,302,0.0,0.0,76,0.00,,---,0.00,VWS V13.01,2013-03-20 01:50:00,
2013-03-19 21:55:00,70.3,62.8,29.80,North,360,0.0,0.0,77,0.00,,---,0.00,VWS V13.01,2013-03-20 01:55:00,
2013-03-19 22:00:00,70.0,62.5,29.80,North,355,0.0,1.0,77,0.00,,---,0.00,VWS V13.01,2013-03-20 02:00:00,
2013-03-19 22:05:00,69.8,62.3,29.80,North,350,0.0,0.0,77,0.00,,---,0.00,VWS V13.01,2013-03-20 02:05:00,
2013-03-19 22:11:00,69.6,62.4,29.80,North,349,0.0,0.0,78,0.00,,---,0.00,VWS V13.01,2013-03-20 02:11:00,
2013-03-19 22:16:00,69.3,62.2,29.80,North,350,0.0,0.0,78,0.00,,---,0.00,VWS V13.01,2013-03-20 02:16:00,
2013-03-19 22:21:00,69.1,62.3,29.80,North,350,0.0,0.0,79,0.00,,---,0.00,VWS V13.01,2013-03-20 02:21:00,
2013-03-19 22:26:00,68.9,62.1,29.80,North,350,0.0,0.0,79,0.00,,---,0.00,VWS V13.01,2013-03-20 02:26:00,
2013-03-19 22:32:00,68.7,61.9,29.80,North,350,0.0,0.0,79,0.00,,---,0.00,VWS V13.01,2013-03-20 02:32:00,
2013-03-19 22:37:00,68.5,62.1,29.81,North,349,0.0,0.0,80,0.00,,---,0.00,VWS V13.01,2013-03-20 02:37:00,
2013-03-19 22:42:00,68.4,62.0,29.80,North,350,0.0,0.0,80,0.00,,---,0.00,VWS V13.01,2013-03-20 02:42:00,
2013-03-19 22:47:00,68.2,61.8,29.80,North,350,0.0,0.0,80,0.00,,---,0.00,VWS V13.01,2013-03-20 02:47:00,
2013-03-19 22:52:00,68.1,62.1,29.80,North,350,0.0,0.0,81,0.00,,---,0.00,VWS V13.01,2013-03-20 02:52:00,
2013-03-19 22:57:00,67.9,61.9,29.80,North,350,0.0,0.0,81,0.00,,---,0.00,VWS V13.01,2013-03-20 02:57:00,
2013-03-19 23:02:00,67.7,61.7,29.81,North,350,0.0,0.0,81,0.00,,---,0.00,VWS V13.01,2013-03-20 03:02:00,
2013-03-19 23:07:00,67.4,61.7,29.81,North,350,0.0,0.0,82,0.00,,---,0.00,VWS V13.01,2013-03-20 03:07:00,
2013-03-19 23:12:00,67.1,61.4,29.81,North,349,0.0,0.0,82,0.00,,---,0.00,VWS V13.01,2013-03-20 03:12:00,
2013-03-19 23:18:00,66.9,61.6,29.81,North,349,0.0,0.0,83,0.00,,---,0.00,VWS V13.01,2013-03-20 03:18:00,
2013-03-19 23:23:00,66.6,61.3,29.81,North,350,0.0,0.0,83,0.00,,---,0.00,VWS V13.01,2013-03-20 03:23:00,
2013-03-19 23:28:00,66.4,61.4,29.82,North,350,0.0,0.0,84,0.00,,---,0.00,VWS V13.01,2013-03-20 03:28:00,
2013-03-19 23:33:00,66.2,61.2,29.82,North,350,0.0,0.0,84,0.00,,---,0.00,VWS V13.01,2013-03-20 03:33:00,
2013-03-19 23:38:00,66.0,61.0,29.82,North,350,0.0,0.0,84,0.00,,---,0.00,VWS V13.01,2013-03-20 03:38:00,
2013-03-19 23:43:00,65.9,60.9,29.82,North,350,0.0,0.0,84,0.00,,---,0.00,VWS V13.01,2013-03-20 03:43:00,
2013-03-19 23:48:00,65.7,61.1,29.82,North,349,0.0,0.0,85,0.00,,---,0.00,VWS V13.01,2013-03-20 03:48:00,
2013-03-19 23:53:00,65.6,61.0,29.82,North,350,0.0,0.0,85,0.00,,---,0.00,VWS V13.01,2013-03-20 03:53:00,
2013-03-19 23:58:00,65.5,60.9,29.82,North,350,0.0,0.0,85,0.00,,---,0.00,VWS V13.01,2013-03-20 03:58:00,